Location: Boca do Mato
(22.9085°S, 43.2930°W)
Time: 22:05:04
(UTC+00:00)

BREEZE-M R/B - Pass Details

Date: 14 July 2020
Orbit: 639 x 26528 km, 49.4° (Epoch: 10 August)

Event Time Altitude Azimuth Distance (km) Brightness Sun altitude
Exits shadow 07:13:31 46° 349° (NNW) 1,415 4.2 -31.6°
Drops below altitude 10° 07:22:14 10° 30° (NNE) 5,208 7.7 -29.6°
Sets 07:29:57 0° 33° (NNE) 8,442 9.0 -27.9°
